Year,Month,Day,Hour,Minute,Value (Times are PST for temperature in C)
2015,06,21,00,00,11.20
2015,06,21,00,01,11.20
2015,06,21,00,02,11.20
2015,06,21,00,03,11.20
2015,06,21,00,04,11.20
2015,06,21,00,05,11.20
2015,06,21,00,06,11.20
2015,06,21,00,07,11.10
2015,06,21,00,08,11.10
2015,06,21,00,09,11.10
2015,06,21,00,10,11.10
2015,06,21,00,11,11.10
2015,06,21,00,12,11.10
2015,06,21,00,13,11.10
2015,06,21,00,14,11.00
2015,06,21,00,15,11.00
2015,06,21,00,16,11.10
2015,06,21,00,17,11.10
2015,06,21,00,18,11.10
2015,06,21,00,19,11.10
2015,06,21,00,20,11.10
2015,06,21,00,21,11.00
2015,06,21,00,22,11.00
2015,06,21,00,23,10.90
2015,06,21,00,24,10.90
2015,06,21,00,25,10.90
2015,06,21,00,26,11.00
2015,06,21,00,27,11.00
2015,06,21,00,28,11.00
2015,06,21,00,29,11.00
2015,06,21,00,30,11.00
2015,06,21,00,31,10.90
2015,06,21,00,32,10.90
2015,06,21,00,33,10.90
2015,06,21,00,34,10.90
2015,06,21,00,35,10.90
2015,06,21,00,36,10.90
2015,06,21,00,37,10.80
2015,06,21,00,38,10.80
2015,06,21,00,39,10.80
2015,06,21,00,40,10.80
2015,06,21,00,41,10.80
2015,06,21,00,42,10.80
2015,06,21,00,43,10.80
2015,06,21,00,44,10.80
2015,06,21,00,45,10.80
2015,06,21,00,46,10.80
2015,06,21,00,47,10.80
2015,06,21,00,48,10.80
2015,06,21,00,49,10.80
2015,06,21,00,50,10.80
2015,06,21,00,51,10.80
2015,06,21,00,52,10.80
2015,06,21,00,53,10.70
2015,06,21,00,54,10.70
2015,06,21,00,55,10.70
2015,06,21,00,56,10.70
2015,06,21,00,57,10.70
2015,06,21,00,58,10.70
2015,06,21,00,59,10.60
2015,06,21,01,00,10.60
2015,06,21,01,01,10.60
2015,06,21,01,02,10.60
2015,06,21,01,03,10.70
2015,06,21,01,04,10.70
2015,06,21,01,05,10.70
2015,06,21,01,06,10.70
2015,06,21,01,07,10.70
2015,06,21,01,08,10.60
2015,06,21,01,09,10.60
2015,06,21,01,10,10.60
2015,06,21,01,11,10.60
2015,06,21,01,12,10.60
2015,06,21,01,13,10.50
2015,06,21,01,14,10.50
2015,06,21,01,15,10.60
2015,06,21,01,16,10.60
2015,06,21,01,17,10.60
2015,06,21,01,18,10.60
2015,06,21,01,19,10.60
2015,06,21,01,20,10.60
2015,06,21,01,21,10.60
2015,06,21,01,22,10.60
2015,06,21,01,23,10.60
2015,06,21,01,24,10.60
2015,06,21,01,25,10.60
2015,06,21,01,26,10.50
2015,06,21,01,27,10.50
2015,06,21,01,28,10.50
2015,06,21,01,29,10.50
2015,06,21,01,30,10.50
2015,06,21,01,31,10.50
2015,06,21,01,32,10.50
2015,06,21,01,33,10.50
2015,06,21,01,34,10.50
2015,06,21,01,35,10.50
2015,06,21,01,36,10.50
2015,06,21,01,37,10.40
2015,06,21,01,38,10.40
2015,06,21,01,39,10.40
2015,06,21,01,40,10.40
2015,06,21,01,41,10.40
2015,06,21,01,42,10.40
2015,06,21,01,43,10.40
2015,06,21,01,44,10.40
2015,06,21,01,45,10.50
2015,06,21,01,46,10.50
2015,06,21,01,47,10.60
2015,06,21,01,48,10.60
2015,06,21,01,49,10.60
2015,06,21,01,50,10.60
2015,06,21,01,51,10.50
2015,06,21,01,52,10.50
2015,06,21,01,53,10.40
2015,06,21,01,54,10.40
2015,06,21,01,55,10.40
2015,06,21,01,56,10.40
2015,06,21,01,57,10.30
2015,06,21,01,58,10.30
2015,06,21,01,59,10.30
2015,06,21,02,00,10.30
2015,06,21,02,01,10.30
2015,06,21,02,02,10.30
2015,06,21,02,03,10.30
2015,06,21,02,04,10.30
2015,06,21,02,05,10.30
2015,06,21,02,06,10.30
2015,06,21,02,07,10.20
2015,06,21,02,08,10.20
2015,06,21,02,09,10.20
2015,06,21,02,10,10.20
2015,06,21,02,11,10.20
2015,06,21,02,12,10.20
2015,06,21,02,13,10.30
2015,06,21,02,14,10.30
2015,06,21,02,15,10.20
2015,06,21,02,16,10.20
2015,06,21,02,17,10.20
2015,06,21,02,18,10.20
2015,06,21,02,19,10.20
2015,06,21,02,20,10.20
2015,06,21,02,21,10.20
2015,06,21,02,22,10.20
2015,06,21,02,23,10.20
2015,06,21,02,24,10.20
2015,06,21,02,25,10.10
2015,06,21,02,26,10.10
2015,06,21,02,27,10.10
2015,06,21,02,28,10.10
2015,06,21,02,29,10.10
2015,06,21,02,30,10.10
2015,06,21,02,31,10.10
2015,06,21,02,32,10.10
2015,06,21,02,33,10.20
2015,06,21,02,34,10.10
2015,06,21,02,35,10.10
2015,06,21,02,36,10.10
2015,06,21,02,37,10.10
2015,06,21,02,38,10.10
2015,06,21,02,39,10.10
2015,06,21,02,40,10.10
2015,06,21,02,41,10.10
2015,06,21,02,42,10.00
2015,06,21,02,43,10.00
2015,06,21,02,44,10.00
2015,06,21,02,45,10.00
2015,06,21,02,46,10.00
2015,06,21,02,47,10.00
2015,06,21,02,48,10.00
2015,06,21,02,49,10.00
2015,06,21,02,50,10.00
2015,06,21,02,51,9.90
2015,06,21,02,52,9.90
2015,06,21,02,53,9.90
2015,06,21,02,54,9.90
2015,06,21,02,55,9.90
2015,06,21,02,56,9.90
2015,06,21,02,57,9.90
2015,06,21,02,58,9.90
2015,06,21,02,59,9.90
2015,06,21,03,00,9.80
2015,06,21,03,01,9.80
2015,06,21,03,02,9.80
2015,06,21,03,03,9.80
2015,06,21,03,04,9.80
2015,06,21,03,05,9.80
2015,06,21,03,06,9.80
2015,06,21,03,07,9.80
2015,06,21,03,08,9.80
2015,06,21,03,09,9.80
2015,06,21,03,10,9.80
2015,06,21,03,11,9.80
2015,06,21,03,12,9.80
2015,06,21,03,13,9.80
2015,06,21,03,14,9.80
2015,06,21,03,15,9.80
2015,06,21,03,16,9.80
2015,06,21,03,17,9.80
2015,06,21,03,18,9.80
2015,06,21,03,19,9.80
2015,06,21,03,20,9.80
2015,06,21,03,21,9.80
2015,06,21,03,22,9.80
2015,06,21,03,23,9.70
2015,06,21,03,24,9.70
2015,06,21,03,25,9.70
2015,06,21,03,26,9.70
2015,06,21,03,27,9.70
2015,06,21,03,28,9.70
2015,06,21,03,29,9.70
2015,06,21,03,30,9.70
2015,06,21,03,31,9.70
2015,06,21,03,32,9.80
2015,06,21,03,33,9.80
2015,06,21,03,34,9.80
2015,06,21,03,35,9.80
2015,06,21,03,36,9.80
2015,06,21,03,37,9.80
2015,06,21,03,38,9.80
2015,06,21,03,39,9.80
2015,06,21,03,40,9.80
2015,06,21,03,41,9.80
2015,06,21,03,42,9.80
2015,06,21,03,43,9.80
2015,06,21,03,44,9.80
2015,06,21,03,45,9.80
2015,06,21,03,46,9.80
2015,06,21,03,47,9.80
2015,06,21,03,48,9.80
2015,06,21,03,49,9.80
2015,06,21,03,50,9.80
2015,06,21,03,51,9.80
2015,06,21,03,52,9.80
2015,06,21,03,53,9.80
2015,06,21,03,54,9.80
2015,06,21,03,55,9.80
2015,06,21,03,56,9.80
2015,06,21,03,57,9.80
2015,06,21,03,58,9.80
2015,06,21,03,59,9.80
2015,06,21,04,00,9.90
2015,06,21,04,01,9.90
2015,06,21,04,02,9.90
2015,06,21,04,03,9.80
2015,06,21,04,04,9.80
2015,06,21,04,05,9.80
2015,06,21,04,06,9.80
2015,06,21,04,07,9.80
2015,06,21,04,08,9.80
2015,06,21,04,09,9.80
2015,06,21,04,10,9.80
2015,06,21,04,11,9.80
2015,06,21,04,12,9.80
2015,06,21,04,13,9.80
2015,06,21,04,14,9.80
2015,06,21,04,15,9.90
2015,06,21,04,16,9.90
2015,06,21,04,17,9.90
2015,06,21,04,18,9.90
2015,06,21,04,19,9.90
2015,06,21,04,20,9.90
2015,06,21,04,21,9.90
2015,06,21,04,22,9.90
2015,06,21,04,23,9.90
2015,06,21,04,24,9.90
2015,06,21,04,25,9.90
2015,06,21,04,26,9.90
2015,06,21,04,27,9.90
2015,06,21,04,28,9.90
2015,06,21,04,29,9.90
2015,06,21,04,30,9.90
2015,06,21,04,31,9.90
2015,06,21,04,32,9.90
2015,06,21,04,33,9.90
2015,06,21,04,34,9.90
2015,06,21,04,35,9.90
2015,06,21,04,36,9.90
2015,06,21,04,37,9.90
2015,06,21,04,38,9.90
2015,06,21,04,39,9.90
2015,06,21,04,40,9.90
2015,06,21,04,41,10.00
2015,06,21,04,42,10.00
2015,06,21,04,43,10.10
2015,06,21,04,44,10.10
2015,06,21,04,45,10.10
2015,06,21,04,46,10.10
2015,06,21,04,47,10.20
2015,06,21,04,48,10.20
2015,06,21,04,49,10.20
2015,06,21,04,50,10.30
2015,06,21,04,51,10.30
2015,06,21,04,52,10.30
2015,06,21,04,53,10.30
2015,06,21,04,54,10.40
2015,06,21,04,55,10.40
2015,06,21,04,56,10.40
2015,06,21,04,57,10.50
2015,06,21,04,58,10.50
2015,06,21,04,59,10.50
2015,06,21,05,00,10.50
2015,06,21,05,01,10.60
2015,06,21,05,02,10.60
2015,06,21,05,03,10.60
2015,06,21,05,04,10.60
2015,06,21,05,05,10.60
2015,06,21,05,06,10.60
2015,06,21,05,07,10.60
2015,06,21,05,08,10.60
2015,06,21,05,09,10.60
2015,06,21,05,10,10.60
2015,06,21,05,11,10.60
2015,06,21,05,12,10.60
2015,06,21,05,13,10.60
2015,06,21,05,14,10.60
2015,06,21,05,15,10.70
2015,06,21,05,16,10.70
2015,06,21,05,17,10.70
2015,06,21,05,18,10.80
2015,06,21,05,19,10.80
2015,06,21,05,20,10.80
2015,06,21,05,21,10.90
2015,06,21,05,22,10.90
2015,06,21,05,23,11.00
2015,06,21,05,24,11.00
2015,06,21,05,25,11.10
2015,06,21,05,26,11.10
2015,06,21,05,27,11.10
2015,06,21,05,28,11.10
2015,06,21,05,29,11.20
2015,06,21,05,30,11.20
2015,06,21,05,31,11.20
2015,06,21,05,32,11.20
2015,06,21,05,33,11.20
2015,06,21,05,34,11.30
2015,06,21,05,35,11.30
2015,06,21,05,36,11.40
2015,06,21,05,37,11.40
2015,06,21,05,38,11.50
2015,06,21,05,39,11.60
2015,06,21,05,40,11.70
2015,06,21,05,41,11.80
2015,06,21,05,42,11.90
2015,06,21,05,43,11.90
2015,06,21,05,44,11.90
2015,06,21,05,45,12.00
2015,06,21,05,46,12.10
2015,06,21,05,47,12.30
2015,06,21,05,48,12.60
2015,06,21,05,49,12.80
2015,06,21,05,50,12.90
2015,06,21,05,51,13.10
2015,06,21,05,52,13.20
2015,06,21,05,53,13.30
2015,06,21,05,54,13.40
2015,06,21,05,55,13.50
2015,06,21,05,56,13.50
2015,06,21,05,57,13.50
2015,06,21,05,58,13.60
2015,06,21,05,59,13.50
2015,06,21,06,00,13.60
2015,06,21,06,01,13.70
2015,06,21,06,02,13.80
2015,06,21,06,03,14.00
2015,06,21,06,04,14.00
2015,06,21,06,05,14.10
2015,06,21,06,06,14.30
2015,06,21,06,07,14.40
2015,06,21,06,08,14.40
2015,06,21,06,09,14.50
2015,06,21,06,10,14.50
2015,06,21,06,11,14.60
2015,06,21,06,12,14.70
2015,06,21,06,13,14.80
2015,06,21,06,14,14.80
2015,06,21,06,15,14.80
2015,06,21,06,16,14.80
2015,06,21,06,17,14.90
2015,06,21,06,18,14.90
2015,06,21,06,19,15.00
2015,06,21,06,20,15.10
2015,06,21,06,21,15.10
2015,06,21,06,22,15.10
2015,06,21,06,23,15.10
2015,06,21,06,24,15.10
2015,06,21,06,25,15.10
2015,06,21,06,26,15.10
2015,06,21,06,27,15.10
2015,06,21,06,28,15.10
2015,06,21,06,29,15.10
2015,06,21,06,30,15.10
2015,06,21,06,31,15.10
2015,06,21,06,32,15.10
2015,06,21,06,33,15.10
2015,06,21,06,34,15.10
2015,06,21,06,35,15.10
2015,06,21,06,36,15.10
2015,06,21,06,37,15.10
2015,06,21,06,38,15.10
2015,06,21,06,39,15.10
2015,06,21,06,40,15.10
2015,06,21,06,41,15.10
2015,06,21,06,42,15.00
2015,06,21,06,43,15.00
2015,06,21,06,44,15.00
2015,06,21,06,45,15.00
2015,06,21,06,46,14.90
2015,06,21,06,47,14.90
2015,06,21,06,48,14.90
2015,06,21,06,49,14.90
2015,06,21,06,50,14.90
2015,06,21,06,51,14.90
2015,06,21,06,52,14.90
2015,06,21,06,53,14.90
2015,06,21,06,54,14.90
2015,06,21,06,55,14.90
2015,06,21,06,56,15.00
2015,06,21,06,57,15.00
2015,06,21,06,58,15.10
2015,06,21,06,59,15.10
2015,06,21,07,00,15.20
2015,06,21,07,01,15.20
2015,06,21,07,02,15.30
2015,06,21,07,03,15.30
2015,06,21,07,04,15.30
2015,06,21,07,05,15.40
2015,06,21,07,06,15.40
2015,06,21,07,07,15.50
2015,06,21,07,08,15.50
2015,06,21,07,09,15.50
2015,06,21,07,10,15.50
2015,06,21,07,11,15.50
2015,06,21,07,12,15.50
2015,06,21,07,13,15.60
2015,06,21,07,14,15.60
2015,06,21,07,15,15.60
2015,06,21,07,16,15.60
2015,06,21,07,17,15.60
2015,06,21,07,18,15.60
2015,06,21,07,19,15.60
2015,06,21,07,20,15.50
2015,06,21,07,21,15.60
2015,06,21,07,22,15.50
2015,06,21,07,23,15.50
2015,06,21,07,24,15.50
2015,06,21,07,25,15.50
2015,06,21,07,26,15.50
2015,06,21,07,27,15.50
2015,06,21,07,28,15.50
2015,06,21,07,29,15.50
2015,06,21,07,30,15.50
2015,06,21,07,31,15.40
2015,06,21,07,32,15.50
2015,06,21,07,33,15.40
2015,06,21,07,34,15.40
2015,06,21,07,35,15.40
2015,06,21,07,36,15.40
2015,06,21,07,37,15.40
2015,06,21,07,38,15.40
2015,06,21,07,39,15.40
2015,06,21,07,40,15.40
2015,06,21,07,41,15.40
2015,06,21,07,42,15.40
2015,06,21,07,43,15.40
2015,06,21,07,44,15.40
2015,06,21,07,45,15.40
2015,06,21,07,46,15.40
2015,06,21,07,47,15.40
2015,06,21,07,48,15.40
2015,06,21,07,49,15.40
2015,06,21,07,50,15.40
2015,06,21,07,51,15.40
2015,06,21,07,52,15.50
2015,06,21,07,53,15.50
2015,06,21,07,54,15.50
2015,06,21,07,55,15.50
2015,06,21,07,56,15.60
2015,06,21,07,57,15.60
2015,06,21,07,58,15.70
2015,06,21,07,59,15.70
2015,06,21,08,00,15.70
2015,06,21,08,01,15.70
2015,06,21,08,02,15.70
2015,06,21,08,03,15.70
2015,06,21,08,04,15.80
2015,06,21,08,05,15.80
2015,06,21,08,06,15.80
2015,06,21,08,07,15.80
2015,06,21,08,08,15.80
2015,06,21,08,09,15.80
2015,06,21,08,10,15.80
2015,06,21,08,11,15.80
2015,06,21,08,12,15.80
2015,06,21,08,13,15.80
2015,06,21,08,14,15.80
2015,06,21,08,15,15.80
2015,06,21,08,16,15.80
2015,06,21,08,17,15.80
2015,06,21,08,18,15.80
2015,06,21,08,19,15.90
2015,06,21,08,20,15.90
2015,06,21,08,21,15.90
2015,06,21,08,22,15.90
2015,06,21,08,23,15.90
2015,06,21,08,24,15.90
2015,06,21,08,25,15.90
2015,06,21,08,26,16.00
2015,06,21,08,27,16.00
2015,06,21,08,28,16.00
2015,06,21,08,29,16.00
2015,06,21,08,30,16.00
2015,06,21,08,31,16.10
2015,06,21,08,32,16.10
2015,06,21,08,33,16.10
2015,06,21,08,34,16.10
2015,06,21,08,35,16.10
2015,06,21,08,36,16.10
2015,06,21,08,37,16.10
2015,06,21,08,38,16.10
2015,06,21,08,39,16.10
2015,06,21,08,40,16.10
2015,06,21,08,41,16.20
2015,06,21,08,42,16.20
2015,06,21,08,43,16.20
2015,06,21,08,44,16.20
2015,06,21,08,45,16.20
2015,06,21,08,46,16.30
2015,06,21,08,47,16.30
2015,06,21,08,48,16.40
2015,06,21,08,49,16.50
2015,06,21,08,50,16.60
2015,06,21,08,51,16.60
2015,06,21,08,52,16.70
2015,06,21,08,53,16.80
2015,06,21,08,54,16.80
2015,06,21,08,55,16.90
2015,06,21,08,56,17.00
2015,06,21,08,57,17.00
2015,06,21,08,58,17.10
2015,06,21,08,59,17.10
2015,06,21,09,00,17.10
2015,06,21,09,01,17.10
2015,06,21,09,02,17.10
2015,06,21,09,03,17.10
2015,06,21,09,04,17.10
2015,06,21,09,05,17.00
2015,06,21,09,06,16.90
2015,06,21,09,07,16.90
2015,06,21,09,08,16.90
2015,06,21,09,09,16.80
2015,06,21,09,10,16.80
2015,06,21,09,11,16.70
2015,06,21,09,12,16.70
2015,06,21,09,13,16.70
2015,06,21,09,14,16.70
2015,06,21,09,15,16.70
2015,06,21,09,16,16.60
2015,06,21,09,17,16.60
2015,06,21,09,18,16.60
2015,06,21,09,19,16.70
2015,06,21,09,20,16.70
2015,06,21,09,21,16.80
2015,06,21,09,22,16.80
2015,06,21,09,23,16.90
2015,06,21,09,24,16.80
2015,06,21,09,25,16.90
2015,06,21,09,26,16.90
2015,06,21,09,27,16.90
2015,06,21,09,28,16.90
2015,06,21,09,29,16.90
2015,06,21,09,30,16.90
2015,06,21,09,31,16.90
2015,06,21,09,32,16.80
2015,06,21,09,33,16.80
2015,06,21,09,34,16.90
2015,06,21,09,35,17.00
2015,06,21,09,36,17.10
2015,06,21,09,37,17.20
2015,06,21,09,38,17.30
2015,06,21,09,39,17.40
2015,06,21,09,40,17.50
2015,06,21,09,41,17.50
2015,06,21,09,42,17.50
2015,06,21,09,43,17.50
2015,06,21,09,44,17.60
2015,06,21,09,45,17.60
2015,06,21,09,46,17.60
2015,06,21,09,47,17.60
2015,06,21,09,48,17.70
2015,06,21,09,49,17.70
2015,06,21,09,50,17.70
2015,06,21,09,51,17.70
2015,06,21,09,52,17.70
2015,06,21,09,53,17.70
2015,06,21,09,54,17.70
2015,06,21,09,55,17.80
2015,06,21,09,56,17.80
2015,06,21,09,57,17.80
2015,06,21,09,58,17.80
2015,06,21,09,59,17.70
2015,06,21,10,00,17.70
2015,06,21,10,01,17.70
2015,06,21,10,02,17.60
2015,06,21,10,03,17.60
2015,06,21,10,04,17.50
2015,06,21,10,05,17.50
2015,06,21,10,06,17.60
2015,06,21,10,07,17.60
2015,06,21,10,08,17.70
2015,06,21,10,09,17.80
2015,06,21,10,10,17.90
2015,06,21,10,11,17.90
2015,06,21,10,12,17.90
2015,06,21,10,13,17.90
2015,06,21,10,14,17.80
2015,06,21,10,15,17.80
2015,06,21,10,16,17.90
2015,06,21,10,17,17.90
2015,06,21,10,18,17.90
2015,06,21,10,19,17.90
2015,06,21,10,20,18.00
2015,06,21,10,21,18.00
2015,06,21,10,22,18.00
2015,06,21,10,23,18.10
2015,06,21,10,24,18.10
2015,06,21,10,25,18.10
2015,06,21,10,26,18.10
2015,06,21,10,27,18.20
2015,06,21,10,28,18.30
2015,06,21,10,29,18.30
2015,06,21,10,30,18.30
2015,06,21,10,31,18.20
2015,06,21,10,32,18.10
2015,06,21,10,33,18.10
2015,06,21,10,34,18.10
2015,06,21,10,35,18.10
2015,06,21,10,36,18.10
2015,06,21,10,37,18.10
2015,06,21,10,38,18.20
2015,06,21,10,39,18.20
2015,06,21,10,40,18.30
2015,06,21,10,41,18.30
2015,06,21,10,42,18.40
2015,06,21,10,43,18.40
2015,06,21,10,44,18.30
2015,06,21,10,45,18.30
2015,06,21,10,46,18.20
2015,06,21,10,47,18.10
2015,06,21,10,48,18.10
2015,06,21,10,49,18.10
2015,06,21,10,50,18.10
2015,06,21,10,51,18.10
2015,06,21,10,52,18.10
2015,06,21,10,53,18.10
2015,06,21,10,54,18.20
2015,06,21,10,55,18.30
2015,06,21,10,56,18.30
2015,06,21,10,57,18.30
2015,06,21,10,58,18.30
2015,06,21,10,59,18.50
2015,06,21,11,00,18.50
2015,06,21,11,01,18.60
2015,06,21,11,02,18.50
2015,06,21,11,03,18.30
2015,06,21,11,04,18.30
2015,06,21,11,05,18.30
2015,06,21,11,06,18.20
2015,06,21,11,07,18.20
2015,06,21,11,08,18.10
2015,06,21,11,09,18.00
2015,06,21,11,10,18.10
2015,06,21,11,11,18.10
2015,06,21,11,12,18.20
2015,06,21,11,13,18.10
2015,06,21,11,14,18.10
2015,06,21,11,15,18.20
2015,06,21,11,16,18.20
2015,06,21,11,17,18.30
2015,06,21,11,18,18.50
2015,06,21,11,19,18.60
2015,06,21,11,20,18.80
2015,06,21,11,21,18.80
2015,06,21,11,22,18.90
2015,06,21,11,23,19.00
2015,06,21,11,24,19.10
2015,06,21,11,25,19.10
2015,06,21,11,26,19.10
2015,06,21,11,27,19.10
2015,06,21,11,28,19.10
2015,06,21,11,29,19.10
2015,06,21,11,30,19.10
2015,06,21,11,31,19.10
2015,06,21,11,32,19.10
2015,06,21,11,33,18.90
2015,06,21,11,34,18.80
2015,06,21,11,35,18.80
2015,06,21,11,36,18.80
2015,06,21,11,37,18.80
2015,06,21,11,38,18.90
2015,06,21,11,39,19.10
2015,06,21,11,40,19.20
2015,06,21,11,41,19.30
2015,06,21,11,42,19.40
2015,06,21,11,43,19.60
2015,06,21,11,44,19.70
2015,06,21,11,45,19.80
2015,06,21,11,46,19.80
2015,06,21,11,47,19.80
2015,06,21,11,48,19.80
2015,06,21,11,49,19.80
2015,06,21,11,50,19.70
2015,06,21,11,51,19.70
2015,06,21,11,52,19.60
2015,06,21,11,53,19.50
2015,06,21,11,54,19.50
2015,06,21,11,55,19.60
2015,06,21,11,56,19.60
2015,06,21,11,57,19.70
2015,06,21,11,58,19.70
2015,06,21,11,59,19.70
2015,06,21,12,00,19.80
2015,06,21,12,01,19.80
2015,06,21,12,02,19.80
2015,06,21,12,03,19.90
2015,06,21,12,04,20.00
2015,06,21,12,05,20.10
2015,06,21,12,06,20.10
2015,06,21,12,07,20.10
2015,06,21,12,08,20.00
2015,06,21,12,09,19.90
2015,06,21,12,10,19.90
2015,06,21,12,11,19.90
2015,06,21,12,12,19.90
2015,06,21,12,13,19.80
2015,06,21,12,14,19.70
2015,06,21,12,15,19.70
2015,06,21,12,16,19.60
2015,06,21,12,17,19.60
2015,06,21,12,18,19.60
2015,06,21,12,19,19.60
2015,06,21,12,20,19.60
2015,06,21,12,21,19.60
2015,06,21,12,22,19.60
2015,06,21,12,23,19.60
2015,06,21,12,24,19.50
2015,06,21,12,25,19.40
2015,06,21,12,26,19.40
2015,06,21,12,27,19.50
2015,06,21,12,28,19.50
2015,06,21,12,29,19.60
2015,06,21,12,30,19.70
2015,06,21,12,31,19.90
2015,06,21,12,32,20.00
2015,06,21,12,33,20.10
2015,06,21,12,34,20.10
2015,06,21,12,35,20.20
2015,06,21,12,36,20.20
2015,06,21,12,37,20.30
2015,06,21,12,38,20.30
2015,06,21,12,39,20.30
2015,06,21,12,40,20.40
2015,06,21,12,41,20.30
2015,06,21,12,42,20.20
2015,06,21,12,43,20.20
2015,06,21,12,44,20.10
2015,06,21,12,45,20.10
2015,06,21,12,46,20.10
2015,06,21,12,47,20.10
2015,06,21,12,48,20.10
2015,06,21,12,49,20.10
2015,06,21,12,50,20.20
2015,06,21,12,51,20.20
2015,06,21,12,52,20.20
2015,06,21,12,53,20.20
2015,06,21,12,54,20.20
2015,06,21,12,55,20.20
2015,06,21,12,56,20.30
2015,06,21,12,57,20.40
2015,06,21,12,58,20.50
2015,06,21,12,59,20.50
2015,06,21,13,00,20.60
2015,06,21,13,01,20.70
2015,06,21,13,02,20.70
2015,06,21,13,03,20.70
2015,06,21,13,04,20.60
2015,06,21,13,05,20.50
2015,06,21,13,06,20.40
2015,06,21,13,07,20.40
2015,06,21,13,08,20.50
2015,06,21,13,09,20.50
2015,06,21,13,10,20.60
2015,06,21,13,11,20.70
2015,06,21,13,12,20.90
2015,06,21,13,13,21.00
2015,06,21,13,14,21.10
2015,06,21,13,15,21.20
2015,06,21,13,16,21.30
2015,06,21,13,17,21.40
2015,06,21,13,18,21.50
2015,06,21,13,19,21.60
2015,06,21,13,20,21.50
2015,06,21,13,21,21.40
2015,06,21,13,22,21.30
2015,06,21,13,23,21.10
2015,06,21,13,24,21.00
2015,06,21,13,25,20.90
2015,06,21,13,26,20.90
2015,06,21,13,27,20.90
2015,06,21,13,28,21.00
2015,06,21,13,29,21.10
2015,06,21,13,30,21.10
2015,06,21,13,31,21.10
2015,06,21,13,32,21.10
2015,06,21,13,33,21.10
2015,06,21,13,34,21.10
2015,06,21,13,35,21.20
2015,06,21,13,36,21.10
2015,06,21,13,37,21.10
2015,06,21,13,38,21.10
2015,06,21,13,39,21.10
2015,06,21,13,40,21.10
2015,06,21,13,41,20.90
2015,06,21,13,42,20.80
2015,06,21,13,43,20.80
2015,06,21,13,44,20.90
2015,06,21,13,45,20.90
2015,06,21,13,46,20.90
2015,06,21,13,47,21.00
2015,06,21,13,48,21.10
2015,06,21,13,49,21.20
2015,06,21,13,50,21.30
2015,06,21,13,51,21.40
2015,06,21,13,52,21.50
2015,06,21,13,53,21.70
2015,06,21,13,54,21.80
2015,06,21,13,55,21.90
2015,06,21,13,56,21.90
2015,06,21,13,57,21.80
2015,06,21,13,58,21.80
2015,06,21,13,59,21.70
2015,06,21,14,00,21.60
2015,06,21,14,01,21.60
2015,06,21,14,02,21.60
2015,06,21,14,03,21.70
2015,06,21,14,04,21.70
2015,06,21,14,05,21.80
2015,06,21,14,06,21.70
2015,06,21,14,07,21.70
2015,06,21,14,08,21.70
2015,06,21,14,09,21.80
2015,06,21,14,10,21.80
2015,06,21,14,11,21.80
2015,06,21,14,12,21.80
2015,06,21,14,13,21.80
2015,06,21,14,14,21.80
2015,06,21,14,15,21.70
2015,06,21,14,16,21.70
2015,06,21,14,17,21.70
2015,06,21,14,18,21.80
2015,06,21,14,19,21.90
2015,06,21,14,20,22.10
2015,06,21,14,21,22.30
2015,06,21,14,22,22.50
2015,06,21,14,23,22.60
2015,06,21,14,24,22.70
2015,06,21,14,25,22.80
2015,06,21,14,26,22.90
2015,06,21,14,27,23.00
2015,06,21,14,28,23.20
2015,06,21,14,29,23.30
2015,06,21,14,30,23.40
2015,06,21,14,31,23.30
2015,06,21,14,32,23.20
2015,06,21,14,33,23.10
2015,06,21,14,34,23.10
2015,06,21,14,35,23.00
2015,06,21,14,36,22.90
2015,06,21,14,37,22.80
2015,06,21,14,38,22.80
2015,06,21,14,39,22.70
2015,06,21,14,40,22.70
2015,06,21,14,41,22.70
2015,06,21,14,42,22.70
2015,06,21,14,43,22.80
2015,06,21,14,44,22.90
2015,06,21,14,45,22.90
2015,06,21,14,46,23.00
2015,06,21,14,47,23.10
2015,06,21,14,48,23.20
2015,06,21,14,49,23.20
2015,06,21,14,50,23.10
2015,06,21,14,51,23.10
2015,06,21,14,52,23.00
2015,06,21,14,53,22.90
2015,06,21,14,54,22.90
2015,06,21,14,55,23.00
2015,06,21,14,56,23.10
2015,06,21,14,57,23.20
2015,06,21,14,58,23.30
2015,06,21,14,59,23.40
2015,06,21,15,00,23.40
2015,06,21,15,01,23.30
2015,06,21,15,02,23.10
2015,06,21,15,03,22.90
2015,06,21,15,04,22.80
2015,06,21,15,05,22.90
2015,06,21,15,06,23.00
2015,06,21,15,07,23.10
2015,06,21,15,08,23.20
2015,06,21,15,09,23.20
2015,06,21,15,10,23.30
2015,06,21,15,11,23.40
2015,06,21,15,12,23.50
2015,06,21,15,13,23.50
2015,06,21,15,14,23.50
2015,06,21,15,15,23.40
2015,06,21,15,16,23.20
2015,06,21,15,17,23.00
2015,06,21,15,18,22.80
2015,06,21,15,19,22.70
2015,06,21,15,20,22.50
2015,06,21,15,21,22.50
2015,06,21,15,22,22.50
2015,06,21,15,23,22.40
2015,06,21,15,24,22.40
2015,06,21,15,25,22.50
2015,06,21,15,26,22.60
2015,06,21,15,27,22.70
2015,06,21,15,28,22.80
2015,06,21,15,29,23.00
2015,06,21,15,30,23.10
2015,06,21,15,31,23.20
2015,06,21,15,32,23.30
2015,06,21,15,33,23.40
2015,06,21,15,34,23.60
2015,06,21,15,35,23.80
2015,06,21,15,36,23.90
2015,06,21,15,37,23.90
2015,06,21,15,38,23.80
2015,06,21,15,39,23.90
2015,06,21,15,40,23.90
2015,06,21,15,41,23.90
2015,06,21,15,42,23.90
2015,06,21,15,43,23.80
2015,06,21,15,44,23.80
2015,06,21,15,45,23.80
2015,06,21,15,46,23.80
2015,06,21,15,47,23.90
2015,06,21,15,48,23.90
2015,06,21,15,49,23.90
2015,06,21,15,50,23.90
2015,06,21,15,51,23.90
2015,06,21,15,52,23.90
2015,06,21,15,53,23.80
2015,06,21,15,54,23.80
2015,06,21,15,55,23.80
2015,06,21,15,56,23.80
2015,06,21,15,57,23.80
2015,06,21,15,58,23.70
2015,06,21,15,59,23.60
2015,06,21,16,00,23.60
2015,06,21,16,01,23.60
2015,06,21,16,02,23.60
2015,06,21,16,03,23.60
2015,06,21,16,04,23.60
2015,06,21,16,05,23.60
2015,06,21,16,06,23.50
2015,06,21,16,07,23.60
2015,06,21,16,08,23.70
2015,06,21,16,09,23.70
2015,06,21,16,10,23.90
2015,06,21,16,11,23.90
2015,06,21,16,12,24.00
2015,06,21,16,13,24.00
2015,06,21,16,14,24.00
2015,06,21,16,15,24.10
2015,06,21,16,16,24.10
2015,06,21,16,17,24.10
2015,06,21,16,18,24.10
2015,06,21,16,19,24.10
2015,06,21,16,20,24.00
2015,06,21,16,21,23.90
2015,06,21,16,22,23.90
2015,06,21,16,23,23.80
2015,06,21,16,24,23.80
2015,06,21,16,25,23.80
2015,06,21,16,26,23.80
2015,06,21,16,27,23.90
2015,06,21,16,28,24.00
2015,06,21,16,29,24.00
2015,06,21,16,30,23.90
2015,06,21,16,31,23.80
2015,06,21,16,32,23.70
2015,06,21,16,33,23.70
2015,06,21,16,34,23.80
2015,06,21,16,35,23.90
2015,06,21,16,36,23.90
2015,06,21,16,37,24.00
2015,06,21,16,38,24.00
2015,06,21,16,39,24.10
2015,06,21,16,40,24.10
2015,06,21,16,41,24.10
2015,06,21,16,42,24.10
2015,06,21,16,43,24.20
2015,06,21,16,44,24.20
2015,06,21,16,45,24.20
2015,06,21,16,46,24.10
2015,06,21,16,47,24.10
2015,06,21,16,48,24.10
2015,06,21,16,49,24.10
2015,06,21,16,50,24.10
2015,06,21,16,51,24.10
2015,06,21,16,52,24.10
2015,06,21,16,53,24.10
2015,06,21,16,54,24.10
2015,06,21,16,55,24.10
2015,06,21,16,56,24.10
2015,06,21,16,57,24.10
2015,06,21,16,58,24.20
2015,06,21,16,59,24.20
2015,06,21,17,00,24.30
2015,06,21,17,01,24.30
2015,06,21,17,02,24.40
2015,06,21,17,03,24.50
2015,06,21,17,04,24.50
2015,06,21,17,05,24.60
2015,06,21,17,06,24.60
2015,06,21,17,07,24.50
2015,06,21,17,08,24.40
2015,06,21,17,09,24.40
2015,06,21,17,10,24.50
2015,06,21,17,11,24.60
2015,06,21,17,12,24.60
2015,06,21,17,13,24.60
2015,06,21,17,14,24.60
2015,06,21,17,15,24.70
2015,06,21,17,16,24.70
2015,06,21,17,17,24.80
2015,06,21,17,18,24.80
2015,06,21,17,19,24.90
2015,06,21,17,20,25.00
2015,06,21,17,21,25.10
2015,06,21,17,22,25.20
2015,06,21,17,23,25.20
2015,06,21,17,24,25.20